Location: Unspecified
(52.4292°N, 19.3359°E)
Time: 22:56:17
(UTC+02:00)

SR - Pass Details

Date: 30 May 2024
Orbit: 580 x 858 km, 66.7° (Epoch: 12 June)

Event Time Altitude Azimuth Distance (km) Brightness Sun altitude
Rises 01:02:08 0° 319° (NW) 2,883 ? -15.6°
Reaches altitude 10° 01:04:27 10° 317° (NW) 1,948 ? -15.6°
Maximum altitude 01:08:45 69° 235° (SW) 631 ? -15.5°
Enters shadow 01:11:12 24° 157° (SSE) 1,216 ? -15.5°
Drops below altitude 10° 01:12:56 10° 152° (SSE) 1,893 - -15.4°
Sets 01:15:09 0° 150° (SSE) 2,793 - -15.4°
